Flag for Germany Weather past 2 weeks in Zerbst/Anhalt, Saxony-Anhalt, Germany

Now
44 °F

Overcast.


Feels Like: 39 °F
Forecast: 36 / 42 °F
Wind: 9 mph from Northwest

Location: Magdeburg

Current Time: Apr 1, 2015 at 4:08:02 PM

Latest Report: Apr 1, 2015 at 3:00 PM


Visibility: 19 mi

Pressure: 29.83 "Hg

Humidity: 65%

Dew point: 33 °F

Location of Zerbst/AnhaltLocation

Historic Weather in Zerbst/Anhalt — Graph

°F

Zerbst/Anhalt temperature yesterday

Maximum temperature yesterday: 52 °F (at 2:00 PM)
Minimum temperature yesterday: 33 °F (at 7:00 AM)
Average temperature yesterday: 43 °F

Past Weeks' High & Low Weather Summary

 TemperatureHumidityPressure
High61 °F (Mar 25, 5:00 PM)98% (Mar 31, 7:00 AM)30.40 "Hg (Mar 31, 7:00 AM)
Low27 °F (Mar 23, 5:00 AM)29% (Mar 19, 5:00 PM)29.09 "Hg (Mar 31, 9:00 AM)
Average44 °F71%29.92 "Hg
* Reported Mar 17 2:00 PM — Apr 1 3:00 PM, Zerbst/Anhalt, Weather by CustomWeather, © 2015

Note: Actual official high and low records may vary slightly from our data, if they occured in-between our weather recording intervals... More about our weather records

Advertising

Zerbst/Anhalt weather history for previous 24 hours

 ConditionsComfort  
Time TempWeatherWind HumidityBarometerVisibility
3:00 PM
Wed, Apr 1
44 °FOvercast.9 mph65%29.83 "Hg19 mi
2:00 PM40 °FSprinkles. Overcast.7 mph82%29.83 "Hg7 mi
1:00 PM37 °FOvercast.7 mph87%29.81 "Hg37 mi
12:00 PM42 °FSprinkles. Partly sunny.10 mph76%29.78 "Hg25 mi
11:00 AM41 °FOvercast.9 mph78%29.78 "Hg37 mi
10:00 AM39 °FOvercast.7 mph84%29.75 "Hg28 mi
9:00 AM39 °FOvercast.7 mph83%29.73 "Hg31 mi
8:00 AM37 °FOvercast.6 mph83%29.70 "Hg31 mi
7:00 AM35 °FPartly sunny.7 mph90%29.68 "Hg37 mi
6:00 AM34 °FSnow. Low clouds.6 mph96%29.67 "Hg1 mi
4:00 AM36 °FDrizzle. Overcast.7 mph91%29.63 "Hg37 mi
3:00 AM38 °FOvercast.8 mph80%29.59 "Hg28 mi
2:00 AM38 °FOvercast.8 mph85%29.59 "Hg43 mi
1:00 AM38 °FPassing clouds.8 mph86%29.57 "Hg43 mi
12:00 AM37 °FRain. Low clouds.5 mph89%29.57 "Hg1 mi
10:00 PM
Tue, Mar 31
40 °FDrizzle. Overcast.12 mph77%29.50 "Hg43 mi
9:00 PM44 °FPassing clouds.10 mph60%29.47 "Hg37 mi
8:00 PM43 °FPassing clouds.13 mph66%29.44 "Hg37 mi
7:00 PM46 °FPartly sunny.12 mph56%29.38 "Hg25 mi
6:00 PM46 °FSprinkles. Overcast.12 mph71%29.32 "Hg19 mi
5:00 PM47 °FSprinkles. Overcast.15 mph69%29.26 "Hg25 mi
4:00 PM49 °FOvercast.12 mph72%29.23 "Hg12 mi
Weather by CustomWeather, © 2015

See weather overviewHow to use our weather pages